Find Starlink 31388

NORAD ID: 59565 Int'l Des: 2024-076 Owner: SPXS Country: US Constellation: starlink operational
LEOCIRCULAR

Current View

Loading 3D Globe...

About Starlink 31388

Starlink 31388 (NORAD 59565) is a starlink constellation satellite (v2 mini) launched Apr 23, 2024 by SPXS of US. It operates in LEO, CIRCULAR orbit with a mass of 730.00 kg.

About Starlink 31388

Description loading...

Upcoming Passes

Passes for default location (London). Set your location on the main map for personalized predictions.

Altitude History

Loading altitude history...

Two-Line Element Set

1 59565U 24076B 26175.88076522 .00000580 00000-0 30596-4 0 9998
2 59565 43.0007 123.8733 0000839 266.2750 93.8006 15.27580272122898
Epoch: Jun 24, 2026 • Age: 19 hours

Current Status

Altitude 493.6 km
Velocity 7.62 km/s
Sub-Earth Point -37.69°S, 85.18°W
Launch Date Apr 23, 2024
Age 2.1 years
Type internet

Technical Details

Classification Payload
Mass 730.00 kg
Dry Mass 700.00 kg
Total Mass 730.00 kg
Length 0.30 m
Diameter 4.10 m
Span 29.00 m
Shape Box + pan
Manufacturer SPXS
Bus Type Starlink V2M
Phase Status In Orbit
Owner/State SPXS/US

Most Searched